[[{"header":{"parameterUnit":"m.s-1","parameterCategory":1,"la1":30.2991,"la2":30.254,"lo1":-89.0895,"lo2":-89.0444,"dy":0.0017,"dx":0.0017,"nx":28,"ny":28,"refTime":"2024-08-25T21:00:00:Z","depth":0,"parameterNumber":2,"parameterNumberName":"U-component_of_WINDS"},"data":[0,0,0,0,0,0,0,0,0,0,0,0,0,0,0,0,0,0,0,0,0,0,0,0,0,0,0,0,0,0,0,0,0,0,0,0,0,0,0,0,0,0,0,0,0,0,0,0,0,0,0,0,0,0,0,0,0,0,-0.4176,-0.4176,0,-0.4163,-0.4163,-0.4163,-0.4114,-0.4113,-0.4112,-0.4111,-0.41,-0.41,-0.4101,0,0,0,0,0,0,0,0,0,0,0,0,0,-0.4162,-0.4162,-0.4176,-0.4176,-0.4176,-0.4163,-0.4163,-0.4163,-0.4114,-0.4113,-0.4112,-0.411,-0.41,-0.41,-0.4101,0,0,0,0,0,0,0,0,0,0,0,0,0,-0.416,-0.4162,-0.4176,-0.415,-0.4148,-0.4163,-0.4163,-0.4163,-0.4115,-0.4113,-0.4111,-0.411,-0.4099,-0.41,-0.4101,-0.4141,0,0,-0.4105,-0.4105,0,0,0,0,0,0,0,0,-0.416,-0.4161,-0.4154,-0.4152,-0.4149,-0.4138,-0.4153,-0.4156,-0.4115,-0.4127,-0.4111,-0.4109,-0.4114,-0.4114,-0.4115,-0.4141,-0.414,-0.4105,-0.4106,-0.4106,-0.4106,0,0,0,0,0,0,0,-0.4161,-0.4161,-0.4171,-0.4154,-0.4151,-0.414,-0.4138,-0.4154,-0.413,-0.4126,-0.4123,-0.4122,-0.4112,-0.4114,-0.4115,-0.414,-0.4105,-0.4106,-0.4106,-0.4107,-0.4198,-0.42,0,0,0,0,0,0,-0.4164,-0.4162,-0.4171,-0.4171,-0.4151,-0.4141,-0.4139,-0.4144,-0.413,-0.4126,-0.4123,-0.4119,-0.4113,-0.4113,-0.4114,-0.416,-0.4106,-0.4107,-0.4108,-0.4197,-0.4199,-0.4201,0,0,0,0,0,0,-0.4164,-0.4165,-0.4172,-0.4165,-0.4165,-0.4143,-0.4149,-0.4144,-0.4146,-0.4128,-0.4123,-0.4129,-0.4112,-0.4112,-0.4135,-0.4159,-0.4107,-0.4108,-0.4195,-0.4197,-0.42,-0.4253,0,0,0,0,0,0,-0.4164,-0.4166,-0.418,-0.4166,-0.4166,-0.4193,-0.415,-0.4145,-0.4148,-0.4143,-0.4132,-0.4129,-0.4111,-0.4133,-0.4136,-0.416,-0.4109,-0.4192,-0.4196,-0.4199,-0.4249,-0.4257,-0.4264,0,0,0,0,0,-0.4163,-0.4196,-0.4181,-0.4183,-0.4183,-0.4194,-0.4194,-0.4172,-0.415,-0.4165,-0.4153,-0.4129,-0.4156,-0.4136,-0.4139,-0.4163,-0.4191,-0.4195,-0.4199,-0.4246,-0.4255,-0.4264,0,0,0,0,0,0,-0.4215,-0.4194,-0.4177,-0.4206,-0.4202,-0.4186,-0.4204,-0.4183,-0.4186,-0.4182,-0.4155,-0.4153,-0.4179,-0.4173,-0.4152,-0.4201,-0.4169,-0.4174,-0.4204,-0.4213,-0.4221,-0.4222,-0.411,0,0,0,0,0,-0.4229,-0.4239,-0.4221,-0.4248,-0.4247,-0.4226,-0.423,-0.4213,-0.4208,-0.4207,-0.4196,-0.4193,-0.4201,-0.4207,-0.4213,-0.4248,-0.4245,-0.4266,-0.4273,-0.4279,-0.4284,-0.4302,-0.4312,-0.4214,-0.4214,-0.4214,0,0,-0.426,-0.425,-0.4258,-0.4258,-0.4253,-0.4265,-0.4225,-0.4239,-0.4247,-0.4209,-0.4229,-0.4222,-0.4217,-0.4246,-0.4258,-0.4241,-0.431,-0.4285,-0.429,-0.4291,-0.4307,-0.4317,-0.4325,-0.4217,-0.4216,-0.4216,0,0,-0.4322,-0.4315,-0.4337,-0.4332,-0.4325,-0.4311,-0.4316,-0.4303,-0.4296,-0.4316,-0.4288,-0.4298,-0.4311,-0.4309,-0.431,-0.437,-0.4349,-0.4373,-0.4413,-0.4431,-0.4439,-0.4445,-0.4467,-0.4476,-0.4377,-0.4377,-0.4377,0,-0.4361,-0.4376,-0.4351,-0.4366,-0.4368,-0.4333,-0.4355,-0.4352,-0.4348,-0.435,-0.4331,-0.4348,-0.4342,-0.437,-0.4385,-0.4386,-0.4392,-0.4374,-0.4439,-0.4446,-0.4452,-0.4473,-0.4481,-0.438,-0.438,-0.438,-0.4379,0,-0.4425,-0.4436,-0.4455,-0.4451,-0.4454,-0.4473,-0.4451,-0.4458,-0.4441,-0.4429,-0.445,-0.4441,-0.4445,-0.445,-0.4434,-0.4476,-0.4466,-0.4444,-0.4412,-0.4465,-0.4484,-0.4491,-0.4385,-0.4384,-0.4383,-0.4382,0,0,-0.452,-0.45,-0.4508,-0.4505,-0.4495,-0.4503,-0.4521,-0.4524,-0.453,-0.4528,-0.4543,-0.4555,-0.4534,-0.4535,-0.4518,-0.4534,-0.4583,-0.451,-0.4509,-0.4524,-0.463,-0.4647,-0.4657,-0.4569,-0.457,-0.4571,-0.4631,0,-0.4579,-0.4607,-0.4585,-0.4617,-0.4628,-0.4594,-0.461,-0.4605,-0.4595,-0.4602,-0.459,-0.46,-0.4571,-0.4572,-0.4586,-0.4574,-0.4604,-0.457,-0.4583,-0.4584,-0.4586,-0.4667,-0.4685,-0.4742,-0.4638,-0.4639,-0.464,0,-0.4652,-0.4652,-0.4686,-0.4673,-0.4676,-0.469,-0.4691,-0.4699,-0.4693,-0.4684,-0.4685,-0.4664,-0.4681,-0.4649,-0.4672,-0.4649,-0.4653,-0.4648,-0.465,-0.4651,-0.4616,-0.4671,-0.4759,-0.4768,-0.4651,-0.465,-0.465,0,-0.4718,-0.4727,-0.4748,-0.4747,-0.4732,-0.4743,-0.4738,-0.473,-0.4734,-0.4735,-0.4737,-0.474,-0.4742,-0.4745,-0.4726,-0.4704,-0.4752,-0.4718,-0.4746,-0.4747,-0.4759,-0.4758,-0.485,-0.476,-0.476,-0.476,-0.476,0,-0.4787,-0.4809,-0.4778,-0.4791,-0.4815,-0.4789,-0.4814,-0.4805,-0.4799,-0.481,-0.4781,-0.4793,-0.4766,-0.4775,-0.476,-0.4782,-0.4783,-0.4777,-0.4773,-0.478,-0.4781,-0.4783,-0.4779,-0.4762,-0.4761,-0.4761,-0.4761,0,-0.4865,-0.4845,-0.4867,-0.485,-0.4847,-0.4865,-0.4852,-0.4864,-0.4851,-0.4866,-0.4868,-0.4848,-0.4857,-0.4837,-0.4844,-0.4834,-0.4865,-0.4855,-0.4867,-0.4864,-0.4894,-0.4891,-0.499,-0.5002,-0.4904,-0.4905,-0.4906,0,-0.4911,-0.4927,-0.4913,-0.4918,-0.4914,-0.4922,-0.4925,-0.49,-0.4905,-0.4899,-0.4912,-0.4919,-0.4923,-0.4939,-0.4925,-0.493,-0.492,-0.4954,-0.4921,-0.4927,-0.4921,-0.4921,-0.4923,-0.4961,-0.4963,-0.4964,-0.4964,0,-0.4995,-0.4984,-0.4989,-0.499,-0.4994,-0.4995,-0.4993,-0.4999,-0.4972,-0.4979,-0.4987,-0.499,-0.4996,-0.5004,-0.5005,-0.5,-0.4979,-0.4975,-0.4982,-0.499,-0.4997,-0.4994,-0.4887,-0.4973,-0.4972,-0.4971,-0.4971,-0.4971,-0.5059,-0.5072,-0.5063,-0.507,-0.5065,-0.5064,-0.5075,-0.5063,-0.5069,-0.5072,-0.5057,-0.5069,-0.5063,-0.5062,-0.506,-0.5069,-0.5054,-0.5064,-0.5066,-0.5069,-0.5074,-0.4994,-0.5069,-0.5069,-0.5069,-0.5069,-0.5068,0,-0.5141,-0.5134,-0.514,-0.5138,-0.5144,-0.5121,-0.5118,-0.5124,-0.5135,-0.513,-0.5135,-0.5145,-0.5151,-0.5138,-0.5143,-0.5153,-0.5143,-0.5155,-0.5155,-0.5154,-0.5087,-0.5081,-0.5163,-0.5163,-0.5163,-0.5163,-0.5163,-0.5163,-0.5185,-0.5206,-0.5194,-0.5213,-0.5205,-0.5216,-0.5216,-0.5215,-0.5212,-0.5224,-0.5229,-0.522,-0.5212,-0.5216,-0.5221,-0.5217,-0.5221,-0.5236,-0.5229,-0.5168,-0.5158,-0.515,-0.5144,-0.5237,-0.5237,-0.5295,-0.5295,-0.5296]},{"header":{"parameterUnit":"m.s-1","parameterCategory":1,"la1":30.2991,"la2":30.254,"lo1":-89.0895,"lo2":-89.0444,"dy":0.0017,"dx":0.0017,"nx":28,"ny":28,"refTime":"2024-08-25T21:00:00:Z","depth":0,"parameterNumber":3,"parameterNumberName":"V-component_of_WINDS"},"data":[0,0,0,0,0,0,0,0,0,0,0,0,0,0,0,0,0,0,0,0,0,0,0,0,0,0,0,0,0,0,0,0,0,0,0,0,0,0,0,0,0,0,0,0,0,0,0,0,0,0,0,0,0,0,0,0,0,0,0.3555,0.3555,0,0.3508,0.3508,0.3507,0.3471,0.347,0.347,0.347,0.342,0.3419,0.3418,0,0,0,0,0,0,0,0,0,0,0,0,0,0.361,0.3609,0.3555,0.3555,0.3554,0.3509,0.3508,0.3507,0.3471,0.347,0.347,0.3469,0.342,0.3419,0.3418,0,0,0,0,0,0,0,0,0,0,0,0,0,0.3577,0.3609,0.3555,0.353,0.3528,0.3509,0.3508,0.3507,0.3471,0.347,0.347,0.3469,0.3421,0.3419,0.3418,0.342,0,0,0.3413,0.3413,0,0,0,0,0,0,0,0,0.3579,0.3575,0.3534,0.3532,0.3529,0.3495,0.3509,0.3478,0.3471,0.3492,0.347,0.3469,0.3445,0.3442,0.3434,0.3417,0.3415,0.3413,0.3412,0.3412,0.3411,0,0,0,0,0,0,0,0.3581,0.3577,0.3537,0.3534,0.3531,0.3521,0.3515,0.3503,0.3472,0.349,0.3488,0.3483,0.3444,0.3436,0.3433,0.3414,0.3413,0.3412,0.3411,0.3411,0.3395,0.3395,0,0,0,0,0,0,0.3588,0.3579,0.3538,0.3535,0.3553,0.352,0.3514,0.3506,0.3472,0.3467,0.3483,0.3481,0.3438,0.3435,0.3431,0.343,0.3412,0.341,0.341,0.3394,0.3395,0.3396,0,0,0,0,0,0,0.3589,0.3585,0.354,0.3556,0.355,0.352,0.3511,0.3506,0.3498,0.3467,0.3461,0.3481,0.3438,0.3433,0.3422,0.3427,0.341,0.3408,0.3394,0.3395,0.3395,0.3428,0,0,0,0,0,0,0.3591,0.3585,0.3586,0.3557,0.3549,0.3533,0.3511,0.3505,0.3495,0.3492,0.3463,0.3458,0.3437,0.3425,0.3421,0.3425,0.3407,0.3393,0.3394,0.3395,0.3426,0.343,0.3432,0,0,0,0,0,0.3593,0.3597,0.3586,0.3582,0.355,0.3534,0.3529,0.3506,0.3496,0.3496,0.3476,0.3459,0.3428,0.3424,0.3419,0.3423,0.3393,0.3394,0.3395,0.3425,0.3429,0.3432,0,0,0,0,0,0,0.3628,0.3593,0.3581,0.3575,0.3558,0.3527,0.3527,0.3511,0.3495,0.3493,0.3464,0.3458,0.345,0.3436,0.3432,0.3422,0.3408,0.3408,0.3432,0.3436,0.3439,0.3442,0.3406,0,0,0,0,0,0.3635,0.3625,0.3595,0.3593,0.3585,0.3558,0.355,0.3533,0.3513,0.3506,0.3485,0.3466,0.3452,0.3443,0.3428,0.3424,0.3416,0.3424,0.3427,0.343,0.343,0.3426,0.3428,0.3399,0.3399,0.3399,0,0,0.3649,0.3629,0.3625,0.36,0.3584,0.3574,0.3552,0.3542,0.3534,0.3504,0.3493,0.3477,0.3454,0.3446,0.3442,0.3434,0.3437,0.3431,0.3434,0.3432,0.3427,0.343,0.3432,0.34,0.34,0.3399,0,0,0.367,0.3655,0.3651,0.3636,0.3612,0.3594,0.3593,0.3565,0.3553,0.3542,0.3519,0.3508,0.3485,0.3469,0.3457,0.3471,0.3454,0.3467,0.3484,0.348,0.3482,0.3484,0.3488,0.349,0.3468,0.3468,0.3468,0,0.3691,0.3676,0.3651,0.3642,0.3632,0.3604,0.36,0.3586,0.3559,0.3552,0.3543,0.3512,0.3495,0.3483,0.3486,0.3478,0.3475,0.347,0.3484,0.3485,0.3487,0.349,0.3492,0.347,0.3469,0.3469,0.3469,0,0.3702,0.3691,0.3691,0.3666,0.3655,0.3648,0.3622,0.3614,0.3598,0.358,0.3568,0.3546,0.3526,0.3522,0.3506,0.3507,0.3502,0.3489,0.3474,0.3492,0.3494,0.3496,0.3472,0.3471,0.3471,0.3471,0,0,0.3744,0.3705,0.3705,0.3692,0.3664,0.3655,0.3647,0.3628,0.3621,0.3603,0.3594,0.3575,0.3562,0.3549,0.3532,0.3528,0.3539,0.3515,0.3514,0.352,0.3537,0.3547,0.3549,0.3528,0.3528,0.3528,0.3539,0,0.376,0.3744,0.3722,0.3713,0.3702,0.3676,0.3668,0.365,0.3633,0.362,0.3601,0.3587,0.3572,0.3564,0.356,0.3539,0.3542,0.3538,0.3519,0.3518,0.3525,0.3551,0.3561,0.3573,0.354,0.354,0.354,0,0.3777,0.376,0.3751,0.3723,0.3717,0.3711,0.3691,0.368,0.3658,0.3645,0.3631,0.3612,0.3601,0.3587,0.3571,0.3568,0.3559,0.3548,0.3547,0.3544,0.353,0.3548,0.3576,0.3577,0.3542,0.3542,0.3542,0,0.3808,0.3783,0.3774,0.3764,0.3731,0.3727,0.3713,0.3691,0.368,0.3662,0.3655,0.3636,0.3625,0.3611,0.3586,0.3579,0.3572,0.3557,0.3561,0.3561,0.356,0.356,0.3586,0.3555,0.3555,0.3555,0.3555,0,0.3828,0.3823,0.3787,0.3782,0.3775,0.3748,0.3742,0.3725,0.3705,0.3695,0.3671,0.3662,0.363,0.3617,0.3598,0.3587,0.3582,0.3571,0.3566,0.3573,0.3574,0.3566,0.3565,0.3556,0.3555,0.3555,0.3555,0,0.3861,0.3837,0.3825,0.3794,0.3787,0.3783,0.3756,0.3749,0.3731,0.3718,0.3714,0.3684,0.3667,0.3642,0.3617,0.3604,0.3596,0.3588,0.3603,0.36,0.3605,0.3605,0.3626,0.3627,0.3596,0.3597,0.3597,0,0.3875,0.3871,0.3839,0.3831,0.3818,0.3805,0.3794,0.3767,0.3757,0.373,0.3726,0.3708,0.3691,0.3666,0.3641,0.3622,0.3613,0.3622,0.361,0.3617,0.3612,0.3612,0.3611,0.3625,0.3625,0.3625,0.3626,0,0.3903,0.3891,0.3876,0.3857,0.3845,0.3828,0.3811,0.3805,0.3774,0.3763,0.3746,0.3733,0.3708,0.369,0.3667,0.3651,0.3633,0.363,0.3629,0.3636,0.3645,0.364,0.361,0.3629,0.3629,0.3629,0.3629,0.3628,0.3926,0.392,0.3897,0.3882,0.3865,0.3849,0.3841,0.3821,0.3806,0.3784,0.3769,0.3752,0.3729,0.3697,0.3682,0.3668,0.366,0.366,0.366,0.366,0.3662,0.3648,0.3664,0.3663,0.3663,0.3663,0.3663,0,0.3951,0.3935,0.3921,0.3897,0.3884,0.3869,0.3848,0.3838,0.3824,0.3804,0.3789,0.3768,0.375,0.3724,0.3703,0.3697,0.3688,0.3692,0.3692,0.3689,0.3671,0.3673,0.37,0.37,0.37,0.37,0.37,0.37,0.3963,0.3953,0.3938,0.3919,0.3902,0.3886,0.3875,0.386,0.3844,0.3822,0.3807,0.379,0.3767,0.3745,0.3727,0.372,0.3713,0.372,0.371,0.3693,0.369,0.3687,0.3689,0.3719,0.3719,0.3729,0.3729,0.3729]}]]